This is the latest recevied weather packets stored in our database for station/object F5MAP-5. If no packets are shown the sender has not sent any weather packets the latest 10 day(s).
| Time | Temp. | Humidity | Pressure | Rain* | Wind** | Luminosity | Snow |
|---|---|---|---|---|---|---|---|
| 1777712533 | 21.67° C | 51% | 1021.6 hPa | 0 mm | - | 522 W/m² | - |
| 1777711933 | 21.11° C | 51% | 1021.7 hPa | 0 mm | - | 436 W/m² | - |
| 1777711333 | 20.56° C | 52% | 1021.7 hPa | 0 mm | - | 489 W/m² | - |
| 1777710732 | 20° C | 53% | 1021.8 hPa | 0 mm | - | 570 W/m² | - |
| 1777710132 | 19.44° C | 54% | 1021.9 hPa | 0 mm | - | 605 W/m² | - |
| 1777709532 | 18.89° C | 56% | 1021.9 hPa | 0 mm | - | 517 W/m² | - |
| 1777708932 | 18.33° C | 58% | 1022 hPa | 0 mm | - | 455 W/m² | - |
| 1777708332 | 17.78° C | 59% | 1022 hPa | 0 mm | - | 418 W/m² | - |
| 1777707732 | 17.22° C | 59% | 1022.1 hPa | 0 mm | - | 466 W/m² | - |
| 1777707133 | 16.67° C | 60% | 1022.2 hPa | 0 mm | - | 369 W/m² | - |
| 1777706532 | 16.11° C | 61% | 1022.3 hPa | 0 mm | - | 396 W/m² | - |
| 1777705933 | 15.56° C | 62% | 1022.3 hPa | 0 mm | - | 74 W/m² | - |
| 1777705332 | 15° C | 63% | 1022.4 hPa | 0 mm | - | 67 W/m² | - |
| 1777704732 | 14.44° C | 64% | 1022.4 hPa | 0 mm | - | 62 W/m² | - |
| 1777704132 | 13.33° C | 67% | 1022.4 hPa | 0 mm | - | 62 W/m² | - |
| 1777703532 | 12.78° C | 70% | 1022.3 hPa | 0 mm | - | 62 W/m² | - |
| 1777702932 | 12.22° C | 72% | 1022.4 hPa | 0 mm | - | 51 W/m² | - |
| 1777702332 | 11.67° C | 74% | 1022.4 hPa | 0 mm | - | 60 W/m² | - |
| 1777701731 | 11.11° C | 75% | 1022.5 hPa | 0 mm | - | 62 W/m² | - |
| 1777701132 | 10.56° C | 76% | 1022.4 hPa | 0 mm | - | 47 W/m² | - |
| 1777700532 | 10° C | 76% | 1022.4 hPa | 0 mm | - | 53 W/m² | - |
| 1777699932 | 10° C | 77% | 1022.5 hPa | 0 mm | - | 44 W/m² | - |
| 1777699331 | 10° C | 77% | 1022.4 hPa | 0 mm | - | 40 W/m² | - |
| 1777698731 | 9.44° C | 76% | 1022.4 hPa | 0 mm | - | 35 W/m² | - |
| 1777698131 | 9.44° C | 76% | 1022.2 hPa | 0 mm | - | 25 W/m² | - |
* Rain latest hour (hover to see other rain measurements)
** Current wind speed in m/s (hover to see current wind gust speed)